Regional Weather Roundup
Issued by NWS

Home | Current Version | Previous Version | Text Only | Print | Product List | Glossary On
Versions: 1 2 3 4 5 6 7 8 9 10 11 12 13 14 15 16 17 18 19 20 21 22 23 24 25 26 27
000
ASUS43 KDMX 241707
RWRIA

WEATHER ROUNDUP FOR IOWA
NATIONAL WEATHER SERVICE DES MOINES IA
1200 PM CDT THU APR 24 2014

NOTE: "FAIR" INDICATES FEW OR NO CLOUDS BELOW 12,000 FEET WITH NO
SIGNIFICANT WEATHER AND/OR OBSTRUCTIONS TO VISIBILITY.

* - THESE STATIONS ARE NOT NWS STATIONS...THUS NOT UNDER NWS
QUALITY CONTROL.  THEY ALSO DO NOT REPORT WEATHER SUCH
AS PRECIPITATION OR FOG.

IAZ001>003-012>014-020>022-031>034-043>046-241800-
   NORTHWEST IOWA

CITY           SKY/WX    TMP DP  RH WIND       PRES   REMARKS
CARROLL *      CLOUDY    54  48  82 NW17      29.68S
CHEROKEE *     CLOUDY    50  46  87 NW15      29.69R
DENISON *      CLOUDY    50  48  93 NW12      29.70R
LE MARS *        N/A     54  48  82 N17G25    29.72R
ORANGE CITY *  CLOUDY    52  45  76 N15       29.70S
SHELDON *      CLOUDY    48  46  93 NW17      29.69S
SIOUX CITY     CLOUDY    57  50  77 NW20      29.71R
SPENCER        CLOUDY    47  43  86 NW13      29.70R
STORM LAKE *   CLOUDY    48  46  93 NW15G22   29.70R
$$

IAZ055>058-069>071-079>083-090>094-241800-
   SOUTHWEST IOWA

CITY           SKY/WX    TMP DP  RH WIND       PRES   REMARKS
ATLANTIC *     CLOUDY    55  50  82 NW15      29.69R
AUDUBON *      MOSUNNY   54  46  76 NW12      29.69R
CLARINDA *     CLOUDY    55  52  88 NW8       29.72R
COUNCIL BLFS * CLOUDY    54  52  94 NW17G28   29.70R
CRESTON *      CLOUDY    55  54  94 SW7       29.68R
HARLAN  *      CLOUDY    54  50  87 NW15      29.73R
LAMONI         CLOUDY    57  54  89 S9        29.66F
RED OAK *      CLOUDY    55  52  88 NW13G22   29.70S
SHENANDOAH *   CLOUDY    55  52  88 NW14G20   29.73R
$$

IAZ047>049-059>061-072>074-084-241800-
   CENTRAL IOWA

CITY           SKY/WX    TMP DP  RH WIND       PRES   REMARKS
AMES           CLOUDY    53  51  93 S9        29.66R
ANKENY *       CLOUDY    54  52  94 S6        29.66S FOG
CHARITON *     CLOUDY    55  52  88 SE7       29.64F
DES MOINES     CLOUDY    56  53  90 S3        29.66F
GRINNELL*      DRIZZLE   50  46  87 S15       29.70R
KNOXVILLE *    CLOUDY    54  50  87 SW3       29.66F
MARSHALLTOWN   CLOUDY    49  47  93 S15       29.66F
NEWTON *       CLOUDY    50  50 100 S8        29.69R
PELLA *        DRIZZLE   50  50 100 W5        29.70R
PERRY *        CLOUDY    54  46  76 W16       29.67S
$$

IAZ004>006-015-016-023>025-035-036-241800-
   NORTH CENTRAL IOWA

CITY           SKY/WX    TMP DP  RH WIND       PRES   REMARKS
ALGONA *       CLOUDY    50  45  81 SW8       29.67S
CLARION *      PTSUNNY   52  48  87 SW12      29.65S
ESTHERVILLE    CLOUDY    44  44 100 NW6       29.68R FOG
FORT DODGE *   CLOUDY    54  46  76 W13       29.67S
MASON CITY     LGT RAIN  45  44  97 S7        29.67F FOG
FOREST CITY *  CLOUDY    45  45 100 SE7       29.65F
IOWA FALLS *   CLOUDY    48  46  93 S10       29.67R
$$

IAZ007>011-017>019-026>030-037>042-050>054-066-241800-
   NORTHEAST IOWA

CITY           SKY/WX    TMP DP  RH WIND       PRES   REMARKS
CEDAR RAPIDS   CLOUDY    53  43  68 SE16G26   29.69F
CHARLES CITY * CLOUDY    45  43  93 SE14G23   29.68S
CLINTON *      CLOUDY    63  37  39 S23G32    29.78S
DECORAH *      LGT RAIN  43  43 100 SE15G22   29.70F
DUBUQUE        CLOUDY    56  40  55 S22G29    29.74F
MONTICELLO *   CLOUDY    54  45  71 S12G25    29.75R HAZE
OELWEIN *      LGT RAIN N/A N/A N/A SE17G23   29.70F
WATERLOO       LGT RAIN  47  45  93 S8        29.69S FOG
$$

IAZ064-065-067-068-078-241800-
   EAST CENTRAL IOWA

CITY           SKY/WX    TMP DP  RH WIND       PRES   REMARKS
DAVENPORT      CLOUDY    62  39  42 S28G37    29.74F
IOWA CITY      CLOUDY    53  47  79 S9        29.75F
MT. PLEASANT * LGT RAIN  59  43  55 S9        29.75R
MUSCATINE *    CLOUDY    61  43  51 S12G20    29.75R
QUAD CITIES    CLOUDY    65  39  38 S20G28    29.74F
$$

IAZ062-063-075>077-085>089-095>099-241800-
   SOUTHEAST IOWA

CITY           SKY/WX    TMP DP  RH WIND       PRES   REMARKS
BURLINGTON     LGT RAIN  60  44  55 S13       29.74F
FAIRFIELD *    LGT RAIN  52  46  82 S15       29.74S
FORT MADISON * PTSUNNY   63  39  42 S16       29.76R
KEOKUK *       PTSUNNY   64  37  36 S16       29.75R
OSKALOOSA *    LGT RAIN  54  46  76 S13       29.70S
CENTERVILLE *  LGT RAIN  52  52 100 E8        29.67F
OTTUMWA        LGT RAIN  54  45  71 S18G25    29.70F
WASHINGTON *   CLOUDY    54  46  76 S12G21    29.75R HAZE
$$

ABBREVIATIONS USED IN REMARKS
   TC - TEMPERATURES IN CELSIUS
  WCI - WIND CHILL INDEX
   HX - HEAT INDEX
  VSB - VISIBILITY
$$




USA.gov is the U.S. government's official web portal to all federal, state and local government web resources and services.